| time (UTC) | temp F | wind direction | speed MPH | gust MPH | rain 1hr in | rain 24hr in | rain mn in | humidity % | barometer mb |
| 20260507091904 | 70 | 45 | 2.0 | 12.0 | 0.00 | 0.00 | 0.00 | 81 | 1012.6 |
| 20260507091404 | 70 | 1 | 6.0 | 12.0 | 0.00 | 0.00 | 0.00 | 81 | 1012.5 |
| 20260507090904 | 70 | 16 | 3.0 | 9.0 | 0.00 | 0.00 | 0.00 | 81 | 1012.5 |
| 20260507090403 | 70 | 357 | 4.0 | 10.0 | 0.00 | 0.00 | 0.00 | 81 | 1012.4 |
| 20260507085404 | 70 | 27 | 5.0 | 12.0 | 0.00 | 0.00 | 0.00 | 81 | 1012.2 |
| 20260507084404 | 71 | 8 | 2.0 | 10.0 | 0.00 | 0.00 | 0.00 | 81 | 1012.2 |
| 20260507083404 | 71 | 353 | 7.0 | 12.0 | 0.00 | 0.00 | 0.00 | 80 | 1012.0 |
| 20260507082904 | 71 | 53 | 5.0 | 15.0 | 0.00 | 0.00 | 0.00 | 80 | 1012.0 |
| 20260507082404 | 71 | 47 | 7.0 | 15.0 | 0.00 | 0.00 | 0.00 | 80 | 1012.0 |
| 20260507081404 | 71 | 0 | 5.0 | 12.0 | 0.00 | 0.00 | 0.00 | 81 | 1012.2 |
| 20260507080904 | 72 | 5 | 5.0 | 12.0 | 0.00 | 0.00 | 0.00 | 81 | 1012.3 |
| 20260507080404 | 72 | 5 | 6.0 | 12.0 | 0.00 | 0.00 | 0.00 | 81 | 1012.1 |
| 20260507075904 | 72 | 13 | 3.0 | 12.0 | 0.00 | 0.00 | 0.00 | 81 | 1012.0 |
| 20260507075404 | 72 | 10 | 6.0 | 13.0 | 0.00 | 0.00 | 0.00 | 81 | 1012.1 |
| 20260507074904 | 72 | 31 | 6.0 | 13.0 | 0.00 | 0.00 | 0.00 | 81 | 1012.1 |
| 20260507074404 | 72 | 17 | 5.0 | 12.0 | 0.00 | 0.00 | 0.00 | 81 | 1012.2 |
| 20260507073904 | 72 | 345 | 5.0 | 12.0 | 0.00 | 0.00 | 0.00 | 81 | 1012.2 |
| 20260507073404 | 72 | 6 | 6.0 | 12.0 | 0.00 | 0.00 | 0.00 | 81 | 1012.2 |
| 20260507072904 | 72 | 24 | 6.0 | 12.0 | 0.00 | 0.00 | 0.00 | 81 | 1012.3 |
| 20260507072403 | 72 | 20 | 3.0 | 12.0 | 0.00 | 0.00 | 0.00 | 81 | 1012.4 |
| 20260507071904 | 72 | 5 | 6.0 | 12.0 | 0.00 | 0.00 | 0.00 | 81 | 1012.4 |
| 20260507071404 | 73 | 10 | 3.0 | 10.0 | 0.00 | 0.00 | 0.00 | 80 | 1012.4 |
| 20260507070404 | 73 | 359 | 6.0 | 14.0 | 0.00 | 0.00 | 0.00 | 80 | 1012.4 |
| 20260507065904 | 73 | 18 | 7.0 | 14.0 | 0.00 | 0.00 | 0.00 | 80 | 1012.4 |
| 20260507065404 | 73 | 15 | 6.0 | 12.0 | 0.00 | 0.00 | 0.00 | 80 | 1012.4 |
| 20260507064404 | 73 | 6 | 4.0 | 12.0 | 0.00 | 0.00 | 0.00 | 80 | 1012.3 |
| 20260507063904 | 73 | 349 | 5.0 | 12.0 | 0.00 | 0.00 | 0.00 | 80 | 1012.3 |
| 20260507063405 | 73 | 346 | 3.0 | 14.0 | 0.00 | 0.00 | 0.00 | 80 | 1012.4 |
| 20260507062904 | 74 | 10 | 6.0 | 14.0 | 0.00 | 0.00 | 0.00 | 80 | 1012.4 |
| 20260507062404 | 74 | 8 | 3.0 | 12.0 | 0.00 | 0.00 | 0.00 | 81 | 1012.4 |
| 20260507061905 | 74 | 11 | 3.0 | 12.0 | 0.00 | 0.00 | 0.00 | 81 | 1012.3 |
| 20260507061405 | 74 | 355 | 6.0 | 12.0 | 0.00 | 0.00 | 0.00 | 81 | 1012.3 |
| 20260507060904 | 74 | 36 | 5.0 | 12.0 | 0.00 | 0.00 | 0.00 | 81 | 1012.2 |
| 20260507060404 | 74 | 38 | 4.0 | 10.0 | 0.00 | 0.00 | 0.00 | 81 | 1012.0 |
| 20260507055904 | 74 | 0 | 5.0 | 10.0 | 0.00 | 0.00 | 0.00 | 80 | 1011.9 |
| 20260507055405 | 74 | 9 | 6.0 | 12.0 | 0.00 | 0.00 | 0.00 | 80 | 1011.9 |
| 20260507054904 | 74 | 3 | 6.0 | 12.0 | 0.00 | 0.00 | 0.00 | 81 | 1011.9 |
| 20260507053404 | 74 | 24 | 4.0 | 10.0 | 0.00 | 0.00 | 0.00 | 82 | 1012.0 |
| 20260507052904 | 75 | 11 | 4.0 | 10.0 | 0.00 | 0.00 | 0.00 | 82 | 1012.1 |
| 20260507052404 | 75 | 21 | 4.0 | 10.0 | 0.00 | 0.00 | 0.00 | 82 | 1012.0 |
| 20260507051903 | 75 | 25 | 3.0 | 10.0 | 0.00 | 0.00 | 0.00 | 82 | 1012.0 |
| 20260507051405 | 75 | 7 | 2.0 | 7.0 | 0.00 | 0.00 | 0.00 | 83 | 1011.9 |
| 20260507050403 | 75 | 9 | 5.0 | 10.0 | 0.00 | 0.00 | 0.00 | 83 | 1011.9 |
| 20260507045905 | 75 | 16 | 4.0 | 8.0 | 0.00 | 0.00 | 0.00 | 83 | 1012.0 |
| 20260507045404 | 75 | 18 | 2.0 | 9.0 | 0.00 | 0.00 | 0.00 | 83 | 1012.0 |
| 20260507044904 | 75 | 8 | 6.0 | 9.0 | 0.00 | 0.00 | 0.00 | 83 | 1012.0 |
| 20260507044404 | 76 | 5 | 2.0 | 10.0 | 0.00 | 0.00 | 0.00 | 83 | 1012.0 |
| 20260507043904 | 76 | 349 | 5.0 | 12.0 | 0.00 | 0.00 | 0.00 | 82 | 1012.0 |
| 20260507042904 | 76 | 349 | 4.0 | 10.0 | 0.00 | 0.00 | 0.00 | 82 | 1012.2 |
| 20260507042403 | 76 | 318 | 5.0 | 12.0 | 0.00 | 0.00 | 0.00 | 81 | 1012.1 |
| 20260507041904 | 77 | 315 | 2.0 | 12.0 | 0.00 | 0.00 | 0.00 | 81 | 1012.0 |
| 20260507041404 | 77 | 351 | 3.0 | 12.0 | 0.00 | 0.00 | 0.00 | 81 | 1011.9 |
| 20260507040904 | 78 | 345 | 3.0 | 12.0 | 0.00 | 0.00 | 0.00 | 82 | 1011.8 |
| 20260507040404 | 78 | 335 | 3.0 | 10.0 | 0.00 | 0.00 | 0.00 | 83 | 1011.6 |
| 20260507035405 | 79 | 181 | 0.0 | 0.0 | 0.00 | 0.00 | 0.00 | 85 | 1011.4 |
| 20260507034405 | 79 | 181 | 0.0 | 0.0 | 0.00 | 0.00 | 0.00 | 85 | 1011.3 |
| 20260507033905 | 79 | 181 | 0.0 | 0.0 | 0.00 | 0.00 | 0.00 | 85 | 1011.3 |
| 20260507033404 | 79 | 181 | 0.0 | 0.0 | 0.00 | 0.00 | 0.00 | 85 | 1011.3 |
| 20260507032404 | 79 | 181 | 0.0 | 0.0 | 0.00 | 0.00 | 0.00 | 85 | 1011.0 |
| 20260507031905 | 79 | 181 | 0.0 | 2.0 | 0.00 | 0.00 | 0.00 | 85 | 1010.9 |
| 20260507031405 | 79 | 181 | 0.0 | 2.0 | 0.00 | 0.00 | 0.00 | 85 | 1010.9 |
| 20260507030904 | 79 | 181 | 1.0 | 3.0 | 0.00 | 0.00 | 0.00 | 85 | 1010.7 |
| 20260507030404 | 79 | 181 | 1.0 | 3.0 | 0.00 | 0.00 | 0.00 | 85 | 1010.6 |
| 20260507025904 | 79 | 181 | 1.0 | 3.0 | 0.00 | 0.00 | 0.00 | 85 | 1010.5 |
| 20260507025404 | 79 | 182 | 1.0 | 3.0 | 0.00 | 0.00 | 0.00 | 84 | 1010.5 |
| 20260507024904 | 79 | 182 | 0.0 | 2.0 | 0.00 | 0.00 | 0.00 | 84 | 1010.3 |
| 20260507024404 | 80 | 182 | 0.0 | 2.0 | 0.00 | 0.00 | 0.00 | 84 | 1010.3 |
| 20260507023904 | 80 | 182 | 0.0 | 3.0 | 0.00 | 0.00 | 0.00 | 84 | 1010.2 |
| 20260507023404 | 80 | 182 | 0.0 | 5.0 | 0.00 | 0.00 | 0.00 | 84 | 1010.2 |
| 20260507022905 | 80 | 182 | 1.0 | 5.0 | 0.00 | 0.00 | 0.00 | 84 | 1010.2 |
| 20260507022404 | 80 | 204 | 1.0 | 3.0 | 0.00 | 0.00 | 0.00 | 83 | 1010.0 |
| 20260507021903 | 80 | 206 | 1.0 | 2.0 | 0.00 | 0.00 | 0.00 | 83 | 1010.1 |
| 20260507021405 | 80 | 206 | 0.0 | 2.0 | 0.00 | 0.00 | 0.00 | 83 | 1010.0 |
| 20260507020904 | 80 | 206 | 0.0 | 2.0 | 0.00 | 0.00 | 0.00 | 83 | 1010.0 |
| 20260507020403 | 80 | 206 | 0.0 | 1.0 | 0.00 | 0.00 | 0.00 | 83 | 1010.0 |
| 20260507015904 | 80 | 206 | 0.0 | 2.0 | 0.00 | 0.00 | 0.00 | 82 | 1009.9 |
| 20260507015404 | 80 | 206 | 1.0 | 3.0 | 0.00 | 0.00 | 0.00 | 82 | 1009.7 |
| 20260507014904 | 80 | 206 | 1.0 | 3.0 | 0.00 | 0.00 | 0.00 | 82 | 1009.7 |
| 20260507014404 | 80 | 206 | 1.0 | 3.0 | 0.00 | 0.00 | 0.00 | 82 | 1009.5 |
| 20260507013905 | 80 | 208 | 1.0 | 3.0 | 0.00 | 0.00 | 0.00 | 82 | 1009.4 |
| 20260507013405 | 81 | 208 | 1.0 | 5.0 | 0.00 | 0.00 | 0.00 | 82 | 1009.3 |
| 20260507012904 | 81 | 208 | 2.0 | 6.0 | 0.00 | 0.00 | 0.00 | 82 | 1009.4 |
| 20260507012405 | 81 | 171 | 3.0 | 6.0 | 0.00 | 0.00 | 0.00 | 82 | 1009.3 |
| 20260507011905 | 81 | 166 | 2.0 | 7.0 | 0.00 | 0.00 | 0.00 | 81 | 1009.2 |
| 20260507010904 | 81 | 164 | 2.0 | 5.0 | 0.00 | 0.00 | 0.00 | 81 | 1008.9 |
| 20260507005905 | 81 | 203 | 1.0 | 6.0 | 0.00 | 0.00 | 0.00 | 80 | 1008.9 |
| 20260507005404 | 81 | 187 | 3.0 | 8.0 | 0.00 | 0.00 | 0.00 | 80 | 1008.9 |
| 20260507004904 | 82 | 179 | 4.0 | 8.0 | 0.00 | 0.00 | 0.00 | 80 | 1008.8 |
| 20260507004405 | 82 | 181 | 4.0 | 6.0 | 0.00 | 0.00 | 0.00 | 80 | 1008.7 |
| 20260507003904 | 82 | 175 | 1.0 | 6.0 | 0.00 | 0.00 | 0.00 | 79 | 1008.9 |
| 20260507002904 | 82 | 160 | 2.0 | 5.0 | 0.00 | 0.00 | 0.00 | 79 | 1008.9 |
| 20260507002404 | 82 | 154 | 1.0 | 5.0 | 0.00 | 0.00 | 0.00 | 79 | 1008.7 |
| 20260507001904 | 83 | 186 | 2.0 | 5.0 | 0.00 | 0.00 | 0.00 | 78 | 1008.7 |
| 20260507000904 | 83 | 177 | 2.0 | 7.0 | 0.00 | 0.00 | 0.00 | 78 | 1008.6 |
| 20260507000405 | 83 | 183 | 3.0 | 7.0 | 0.00 | 0.00 | 0.00 | 78 | 1008.6 |
| 20260506235904 | 83 | 194 | 3.0 | 7.0 | 0.00 | 0.00 | 0.00 | 78 | 1008.5 |
| 20260506235404 | 83 | 166 | 1.0 | 7.0 | 0.00 | 0.00 | 0.00 | 77 | 1008.5 |
| 20260506234904 | 83 | 199 | 2.0 | 7.0 | 0.00 | 0.00 | 0.00 | 77 | 1008.5 |
| 20260506234405 | 84 | 152 | 3.0 | 7.0 | 0.00 | 0.00 | 0.00 | 77 | 1008.5 |
| 20260506233905 | 84 | 180 | 2.0 | 7.0 | 0.00 | 0.00 | 0.00 | 77 | 1008.4 |
| 20260506233403 | 84 | 179 | 2.0 | 7.0 | 0.00 | 0.00 | 0.00 | 77 | 1008.4 |
| 20260506232905 | 84 | 180 | 2.0 | 8.0 | 0.00 | 0.00 | 0.00 | 77 | 1008.5 |
| 20260506232405 | 84 | 162 | 2.0 | 8.0 | 0.00 | 0.00 | 0.00 | 77 | 1008.5 |
| 20260506231904 | 84 | 158 | 2.0 | 8.0 | 0.00 | 0.00 | 0.00 | 76 | 1008.5 |
| 20260506231404 | 84 | 177 | 3.0 | 9.0 | 0.00 | 0.00 | 0.00 | 76 | 1008.4 |
| 20260506230904 | 84 | 188 | 3.0 | 10.0 | 0.00 | 0.00 | 0.00 | 76 | 1008.3 |
| 20260506225904 | 84 | 186 | 2.0 | 8.0 | 0.00 | 0.00 | 0.00 | 76 | 1008.2 |
| 20260506225405 | 85 | 167 | 1.0 | 7.0 | 0.00 | 0.00 | 0.00 | 75 | 1008.2 |
| 20260506224404 | 85 | 173 | 5.0 | 10.0 | 0.00 | 0.00 | 0.00 | 75 | 1008.0 |
| 20260506223904 | 85 | 157 | 3.0 | 10.0 | 0.00 | 0.00 | 0.00 | 75 | 1008.1 |
| 20260506222905 | 85 | 171 | 5.0 | 10.0 | 0.00 | 0.00 | 0.00 | 75 | 1008.1 |
| 20260506222405 | 85 | 176 | 4.0 | 9.0 | 0.00 | 0.00 | 0.00 | 75 | 1008.2 |
| 20260506221904 | 85 | 181 | 4.0 | 10.0 | 0.00 | 0.00 | 0.00 | 74 | 1008.3 |
| 20260506221404 | 85 | 156 | 3.0 | 12.0 | 0.00 | 0.00 | 0.00 | 73 | 1008.3 |
| 20260506220404 | 86 | 169 | 4.0 | 12.0 | 0.00 | 0.00 | 0.00 | 72 | 1008.3 |
| 20260506215903 | 87 | 139 | 5.0 | 12.0 | 0.00 | 0.00 | 0.00 | 71 | 1008.2 |
| 20260506215404 | 87 | 224 | 3.0 | 8.0 | 0.00 | 0.00 | 0.00 | 71 | 1008.2 |
| 20260506214905 | 87 | 171 | 4.0 | 8.0 | 0.00 | 0.00 | 0.00 | 70 | 1008.2 |
| 20260506214403 | 88 | 161 | 2.0 | 8.0 | 0.00 | 0.00 | 0.00 | 70 | 1008.2 |
| 20260506213404 | 88 | 177 | 2.0 | 6.0 | 0.00 | 0.00 | 0.00 | 70 | 1008.3 |
| 20260506212904 | 88 | 190 | 3.0 | 8.0 | 0.00 | 0.00 | 0.00 | 69 | 1008.3 |
| 20260506212404 | 88 | 187 | 5.0 | 8.0 | 0.00 | 0.00 | 0.00 | 70 | 1008.3 |
| 20260506211904 | 88 | 170 | 2.0 | 7.0 | 0.00 | 0.00 | 0.00 | 70 | 1008.3 |
| 20260506211404 | 88 | 182 | 3.0 | 7.0 | 0.00 | 0.00 | 0.00 | 71 | 1008.3 |
| 20260506210904 | 88 | 213 | 1.0 | 12.0 | 0.00 | 0.00 | 0.00 | 71 | 1008.3 |
| 20260506205904 | 87 | 161 | 5.0 | 10.0 | 0.00 | 0.00 | 0.00 | 71 | 1008.3 |
| 20260506204904 | 87 | 178 | 6.0 | 14.0 | 0.00 | 0.00 | 0.00 | 72 | 1008.4 |
| 20260506204404 | 87 | 172 | 4.0 | 9.0 | 0.00 | 0.00 | 0.00 | 72 | 1008.5 |
| 20260506203904 | 87 | 163 | 5.0 | 10.0 | 0.00 | 0.00 | 0.00 | 72 | 1008.5 |
| 20260506203404 | 87 | 203 | 2.0 | 15.0 | 0.00 | 0.00 | 0.00 | 74 | 1008.6 |
| 20260506202404 | 85 | 175 | 7.0 | 15.0 | 0.00 | 0.00 | 0.00 | 77 | 1008.7 |
| 20260506201903 | 85 | 151 | 1.0 | 10.0 | 0.00 | 0.00 | 0.00 | 76 | 1008.8 |
| 20260506201404 | 85 | 171 | 5.0 | 10.0 | 0.00 | 0.00 | 0.00 | 76 | 1008.9 |
| 20260506200905 | 85 | 175 | 4.0 | 12.0 | 0.00 | 0.00 | 0.00 | 76 | 1009.0 |
| 20260506200404 | 85 | 183 | 3.0 | 12.0 | 0.00 | 0.00 | 0.00 | 76 | 1009.0 |
| 20260506195904 | 85 | 161 | 5.0 | 10.0 | 0.00 | 0.00 | 0.00 | 75 | 1009.1 |
| 20260506195404 | 86 | 162 | 4.0 | 10.0 | 0.00 | 0.00 | 0.00 | 74 | 1009.1 |
| 20260506194904 | 86 | 196 | 4.0 | 12.0 | 0.00 | 0.00 | 0.00 | 74 | 1009.1 |
| 20260506194404 | 86 | 158 | 5.0 | 13.0 | 0.00 | 0.00 | 0.00 | 74 | 1009.1 |
| 20260506193904 | 86 | 158 | 5.0 | 13.0 | 0.00 | 0.00 | 0.00 | 75 | 1009.2 |
| 20260506193403 | 86 | 164 | 2.0 | 12.0 | 0.00 | 0.00 | 0.00 | 74 | 1009.2 |
| 20260506192904 | 86 | 175 | 5.0 | 12.0 | 0.00 | 0.00 | 0.00 | 74 | 1009.2 |
| 20260506191403 | 86 | 181 | 6.0 | 10.0 | 0.00 | 0.00 | 0.00 | 74 | 1009.4 |
| 20260506190904 | 86 | 181 | 2.0 | 10.0 | 0.00 | 0.00 | 0.00 | 74 | 1009.4 |
| 20260506190404 | 86 | 181 | 6.0 | 8.0 | 0.00 | 0.00 | 0.00 | 74 | 1009.6 |
| 20260506185904 | 86 | 177 | 4.0 | 9.0 | 0.00 | 0.00 | 0.00 | 74 | 1009.5 |
| 20260506185405 | 86 | 141 | 4.0 | 9.0 | 0.00 | 0.00 | 0.00 | 74 | 1009.6 |
| 20260506184904 | 86 | 166 | 3.0 | 9.0 | 0.00 | 0.00 | 0.00 | 74 | 1009.7 |
| 20260506184403 | 86 | 151 | 2.0 | 9.0 | 0.00 | 0.00 | 0.00 | 74 | 1009.8 |
| 20260506183404 | 86 | 187 | 2.0 | 9.0 | 0.00 | 0.00 | 0.00 | 75 | 1009.7 |
| 20260506182404 | 86 | 166 | 3.0 | 9.0 | 0.00 | 0.00 | 0.00 | 76 | 1009.9 |
| 20260506181904 | 86 | 182 | 2.0 | 9.0 | 0.00 | 0.00 | 0.00 | 75 | 1010.0 |
| 20260506181405 | 86 | 151 | 3.0 | 7.0 | 0.00 | 0.00 | 0.00 | 75 | 1010.1 |
| 20260506180905 | 86 | 201 | 2.0 | 7.0 | 0.00 | 0.00 | 0.00 | 76 | 1010.1 |
| 20260506180404 | 85 | 178 | 1.0 | 8.0 | 0.00 | 0.00 | 0.00 | 77 | 1010.1 |
| 20260506175904 | 85 | 171 | 2.0 | 9.0 | 0.00 | 0.00 | 0.00 | 78 | 1010.2 |
| 20260506175404 | 84 | 163 | 2.0 | 9.0 | 0.00 | 0.00 | 0.00 | 78 | 1010.2 |
| 20260506174903 | 84 | 162 | 3.0 | 9.0 | 0.00 | 0.00 | 0.00 | 79 | 1010.2 |
| 20260506174404 | 84 | 140 | 3.0 | 7.0 | 0.00 | 0.00 | 0.00 | 78 | 1010.3 |
| 20260506173904 | 84 | 197 | 3.0 | 9.0 | 0.00 | 0.00 | 0.00 | 78 | 1010.2 |
| 20260506173403 | 84 | 152 | 4.0 | 9.0 | 0.00 | 0.00 | 0.00 | 78 | 1010.3 |
| 20260506172904 | 84 | 193 | 2.0 | 9.0 | 0.00 | 0.00 | 0.00 | 79 | 1010.4 |
| 20260506172405 | 84 | 176 | 3.0 | 9.0 | 0.00 | 0.00 | 0.00 | 80 | 1010.4 |
| 20260506171905 | 83 | 185 | 3.0 | 9.0 | 0.00 | 0.00 | 0.00 | 81 | 1010.5 |
| 20260506171405 | 83 | 147 | 2.0 | 9.0 | 0.00 | 0.00 | 0.00 | 81 | 1010.6 |
| 20260506170404 | 82 | 185 | 4.0 | 8.0 | 0.00 | 0.00 | 0.00 | 84 | 1010.7 |
| 20260506165903 | 81 | 161 | 1.0 | 8.0 | 0.00 | 0.00 | 0.00 | 84 | 1010.8 |
| 20260506165404 | 81 | 146 | 2.0 | 8.0 | 0.00 | 0.00 | 0.00 | 85 | 1010.8 |
| 20260506164904 | 81 | 159 | 1.0 | 5.0 | 0.00 | 0.00 | 0.00 | 86 | 1010.7 |
| 20260506164405 | 81 | 195 | 1.0 | 5.0 | 0.00 | 0.00 | 0.00 | 86 | 1010.7 |
| 20260506163904 | 81 | 185 | 1.0 | 8.0 | 0.00 | 0.00 | 0.00 | 85 | 1010.7 |
| 20260506163404 | 80 | 184 | 3.0 | 8.0 | 0.00 | 0.00 | 0.00 | 85 | 1010.7 |
| 20260506162904 | 80 | 194 | 5.0 | 8.0 | 0.00 | 0.00 | 0.00 | 85 | 1010.6 |
| 20260506162404 | 80 | 175 | 2.0 | 5.0 | 0.00 | 0.00 | 0.00 | 85 | 1010.7 |
| 20260506161903 | 80 | 180 | 3.0 | 7.0 | 0.00 | 0.00 | 0.00 | 85 | 1010.6 |
| 20260506161404 | 80 | 171 | 3.0 | 9.0 | 0.00 | 0.00 | 0.00 | 85 | 1010.6 |
| 20260506160904 | 80 | 210 | 2.0 | 9.0 | 0.00 | 0.00 | 0.00 | 85 | 1010.6 |
| 20260506160404 | 80 | 155 | 4.0 | 9.0 | 0.00 | 0.00 | 0.00 | 85 | 1010.5 |
| 20260506155904 | 80 | 164 | 2.0 | 6.0 | 0.00 | 0.00 | 0.00 | 85 | 1010.6 |
| 20260506155405 | 80 | 163 | 2.0 | 6.0 | 0.00 | 0.00 | 0.00 | 86 | 1010.6 |
| 20260506154404 | 80 | 178 | 2.0 | 6.0 | 0.00 | 0.00 | 0.00 | 86 | 1010.3 |
| 20260506153904 | 80 | 169 | 2.0 | 7.0 | 0.00 | 0.00 | 0.00 | 85 | 1010.1 |
| 20260506153404 | 80 | 183 | 2.0 | 8.0 | 0.00 | 0.00 | 0.00 | 85 | 1010.1 |
| 20260506151904 | 80 | 165 | 2.0 | 6.0 | 0.00 | 0.00 | 0.00 | 85 | 1010.0 |
| 20260506151404 | 80 | 208 | 1.0 | 8.0 | 0.00 | 0.00 | 0.00 | 85 | 1009.9 |
| 20260506150404 | 80 | 142 | 2.0 | 8.0 | 0.00 | 0.00 | 0.00 | 85 | 1009.8 |
| 20260506145905 | 80 | 160 | 3.0 | 8.0 | 0.00 | 0.00 | 0.00 | 86 | 1009.6 |
| 20260506145405 | 80 | 166 | 2.0 | 6.0 | 0.00 | 0.00 | 0.00 | 86 | 1009.5 |
| 20260506144904 | 80 | 178 | 1.0 | 8.0 | 0.00 | 0.00 | 0.00 | 86 | 1009.4 |
| 20260506144405 | 80 | 173 | 4.0 | 8.0 | 0.00 | 0.00 | 0.00 | 86 | 1009.4 |
| 20260506143904 | 80 | 153 | 2.0 | 5.0 | 0.00 | 0.00 | 0.00 | 86 | 1009.4 |
| 20260506143404 | 79 | 153 | 2.0 | 5.0 | 0.00 | 0.00 | 0.00 | 86 | 1009.4 |
| 20260506142904 | 79 | 159 | 3.0 | 8.0 | 0.00 | 0.00 | 0.00 | 86 | 1009.6 |
| 20260506142404 | 79 | 164 | 2.0 | 9.0 | 0.00 | 0.00 | 0.00 | 87 | 1009.5 |
| 20260506141904 | 79 | 142 | 3.0 | 9.0 | 0.00 | 0.00 | 0.00 | 87 | 1009.5 |
| 20260506141404 | 79 | 165 | 3.0 | 6.0 | 0.00 | 0.00 | 0.00 | 88 | 1009.6 |
| 20260506140904 | 79 | 183 | 2.0 | 6.0 | 0.00 | 0.00 | 0.00 | 88 | 1009.6 |
| 20260506140404 | 79 | 187 | 2.0 | 6.0 | 0.00 | 0.00 | 0.00 | 89 | 1009.6 |
| 20260506135904 | 79 | 184 | 3.0 | 8.0 | 0.00 | 0.00 | 0.00 | 89 | 1009.7 |
| 20260506135405 | 79 | 177 | 3.0 | 8.0 | 0.00 | 0.00 | 0.00 | 89 | 1009.7 |
| 20260506134904 | 78 | 176 | 3.0 | 8.0 | 0.00 | 0.00 | 0.00 | 90 | 1009.7 |
| 20260506134404 | 78 | 167 | 2.0 | 5.0 | 0.00 | 0.00 | 0.00 | 90 | 1009.7 |
| 20260506133405 | 78 | 173 | 2.0 | 3.0 | 0.00 | 0.00 | 0.00 | 90 | 1009.8 |
| 20260506132904 | 78 | 170 | 1.0 | 6.0 | 0.00 | 0.00 | 0.00 | 90 | 1009.8 |
| 20260506132404 | 77 | 171 | 1.0 | 6.0 | 0.00 | 0.00 | 0.00 | 90 | 1009.8 |
| 20260506131904 | 77 | 180 | 0.0 | 2.0 | 0.00 | 0.00 | 0.00 | 90 | 1009.9 |
| 20260506131404 | 77 | 181 | 1.0 | 3.0 | 0.00 | 0.00 | 0.00 | 90 | 1009.8 |
| 20260506125904 | 77 | 181 | 1.0 | 7.0 | 0.00 | 0.00 | 0.00 | 90 | 1009.9 |
| 20260506125404 | 77 | 185 | 2.0 | 7.0 | 0.00 | 0.00 | 0.00 | 90 | 1009.8 |
| 20260506124904 | 77 | 163 | 3.0 | 7.0 | 0.00 | 0.00 | 0.00 | 90 | 1009.7 |
| 20260506124405 | 77 | 187 | 1.0 | 6.0 | 0.00 | 0.00 | 0.00 | 90 | 1009.7 |
| 20260506123904 | 77 | 190 | 1.0 | 6.0 | 0.00 | 0.00 | 0.00 | 90 | 1009.6 |
| 20260506123405 | 77 | 191 | 2.0 | 6.0 | 0.00 | 0.00 | 0.00 | 90 | 1009.5 |
| 20260506122904 | 76 | 178 | 2.0 | 6.0 | 0.00 | 0.00 | 0.00 | 90 | 1009.5 |
| 20260506122404 | 76 | 182 | 2.0 | 7.0 | 0.00 | 0.00 | 0.00 | 90 | 1009.5 |
| 20260506121904 | 76 | 184 | 3.0 | 7.0 | 0.00 | 0.00 | 0.00 | 90 | 1009.5 |
| 20260506120904 | 76 | 200 | 1.0 | 6.0 | 0.00 | 0.00 | 0.00 | 90 | 1009.4 |
| 20260506120405 | 76 | 183 | 3.0 | 7.0 | 0.00 | 0.00 | 0.00 | 90 | 1009.3 |
| 20260506115904 | 76 | 181 | 4.0 | 9.0 | 0.00 | 0.00 | 0.00 | 90 | 1009.2 |
| 20260506115404 | 76 | 184 | 3.0 | 9.0 | 0.00 | 0.00 | 0.00 | 90 | 1009.1 |
| 20260506114404 | 76 | 185 | 2.0 | 6.0 | 0.00 | 0.00 | 0.00 | 89 | 1009.0 |
| 20260506113904 | 76 | 177 | 2.0 | 6.0 | 0.00 | 0.00 | 0.00 | 89 | 1008.8 |
| 20260506113404 | 76 | 176 | 2.0 | 6.0 | 0.00 | 0.00 | 0.00 | 89 | 1008.8 |
| 20260506112904 | 76 | 187 | 3.0 | 7.0 | 0.00 | 0.00 | 0.00 | 89 | 1008.7 |
| 20260506112404 | 76 | 155 | 2.0 | 7.0 | 0.00 | 0.00 | 0.00 | 89 | 1008.7 |
| 20260506111904 | 76 | 163 | 2.0 | 6.0 | 0.00 | 0.00 | 0.00 | 89 | 1008.6 |
| 20260506111404 | 76 | 182 | 1.0 | 6.0 | 0.00 | 0.00 | 0.00 | 89 | 1008.5 |
| 20260506110903 | 76 | 184 | 3.0 | 6.0 | 0.00 | 0.00 | 0.00 | 89 | 1008.5 |
| 20260506105404 | 76 | 175 | 0.0 | 3.0 | 0.00 | 0.00 | 0.00 | 89 | 1008.6 |
| 20260506104905 | 76 | 174 | 1.0 | 8.0 | 0.00 | 0.00 | 0.00 | 89 | 1008.7 |
| 20260506104405 | 76 | 173 | 2.0 | 8.0 | 0.00 | 0.00 | 0.00 | 88 | 1008.7 |
| 20260506103404 | 76 | 156 | 1.0 | 2.0 | 0.00 | 0.00 | 0.00 | 88 | 1008.8 |
| 20260506102904 | 76 | 156 | 0.0 | 3.0 | 0.00 | 0.00 | 0.00 | 88 | 1008.7 |
| 20260506102404 | 76 | 155 | 0.0 | 3.0 | 0.00 | 0.00 | 0.00 | 88 | 1008.7 |
| 20260506101905 | 76 | 156 | 0.0 | 3.0 | 0.00 | 0.00 | 0.00 | 88 | 1008.7 |
| 20260506101404 | 76 | 156 | 2.0 | 7.0 | 0.00 | 0.00 | 0.00 | 88 | 1008.6 |
| 20260506100904 | 76 | 154 | 2.0 | 7.0 | 0.00 | 0.00 | 0.00 | 88 | 1008.4 |
| 20260506100404 | 76 | 173 | 2.0 | 5.0 | 0.00 | 0.00 | 0.00 | 88 | 1008.4 |
| 20260506095904 | 76 | 175 | 1.0 | 3.0 | 0.00 | 0.00 | 0.00 | 88 | 1008.5 |
| 20260506094905 | 76 | 172 | 1.0 | 2.0 | 0.00 | 0.00 | 0.00 | 87 | 1008.3 |
| 20260506094404 | 76 | 172 | 0.0 | 3.0 | 0.00 | 0.00 | 0.00 | 87 | 1008.4 |
| 20260506093903 | 76 | 172 | 0.0 | 3.0 | 0.00 | 0.00 | 0.00 | 87 | 1008.4 |